Flag for U.S.A. Weather past 2 weeks in Overland Park, Kansas, U.S.A.

Now
48 °F

Clear.


Feels Like: 45 °F
Forecast: 44 / 69 °F
Wind: 6 mph from Northeast

Location: Johnson County Executive Airport

Current Time: Apr 28, 2015 at 7:18:49 AM

Latest Report: Apr 28, 2015 at 6:53 AM


Visibility: 10 mi

Pressure: 30.14 "Hg

Humidity: 66%

Dew point: 37 °F

Location of Overland ParkLocation

Historic Weather in Overland Park — Graph

°F

Overland Park temperature yesterday

Maximum temperature yesterday: 66 °F (at 3:53 PM)
Minimum temperature yesterday: 44 °F (at 6:53 AM)
Average temperature yesterday: 55 °F

Past Weeks' High & Low Weather Summary

 TemperatureHumidityPressure
High75 °F (Apr 17, 2:53 PM)100% (Apr 16, 6:53 AM)30.23 "Hg (Apr 16, 6:53 AM)
Low40 °F (Apr 22, 6:53 AM)22% (Apr 13, 1:53 PM)29.40 "Hg (Apr 25, 4:53 AM)
Average57 °F63%29.92 "Hg
* Reported Apr 13 5:53 AM — Apr 28 5:53 AM, Overland Park, Weather by CustomWeather, © 2015

Note: Actual official high and low records may vary slightly from our data, if they occured in-between our weather recording intervals... More about our weather records

Advertising

Overland Park weather history for previous 24 hours

 ConditionsComfort  
Time TempWeatherWind HumidityBarometerVisibility
5:53 AM
Tue, Apr 28
48 °FClear.3 mph63%30.13 "Hg10 mi
4:53 AM49 °FClear.6 mph64%30.12 "Hg10 mi
3:53 AM51 °FClear.5 mph56%30.11 "Hg10 mi
2:53 AM50 °FClear.6 mph61%30.10 "Hg10 mi
1:53 AM51 °FClear.6 mph59%30.11 "Hg10 mi
12:53 AM52 °FClear.5 mph57%30.11 "Hg10 mi
11:53 PM
Mon, Apr 27
54 °FClear.3 mph51%30.10 "Hg10 mi
10:53 PM57 °FClear.5 mph46%30.10 "Hg10 mi
9:53 PM57 °FClear.5 mph46%30.09 "Hg10 mi
8:53 PM58 °FSunny.6 mph43%30.06 "Hg10 mi
7:53 PM61 °FSunny.9 mph38%30.05 "Hg10 mi
6:53 PM64 °FSunny.13 mph35%30.03 "Hg10 mi
5:53 PM64 °FSunny.15 mph33%30.03 "Hg10 mi
4:53 PM66 °FSunny.16 mph29%30.04 "Hg10 mi
3:53 PM66 °FSunny.16 mph32%30.04 "Hg10 mi
2:53 PM65 °FSunny.14 mph34%30.06 "Hg10 mi
1:53 PM64 °FSunny.9 mph38%30.09 "Hg10 mi
12:53 PM60 °FSunny.12 mph41%30.09 "Hg10 mi
11:53 AM59 °FSunny.9 mph44%30.13 "Hg10 mi
10:53 AM57 °FSunny.13 mph47%30.13 "Hg10 mi
9:53 AM55 °FSunny.9 mph55%30.15 "Hg10 mi
8:53 AM52 °FSunny.8 mph59%30.14 "Hg10 mi
7:53 AM47 °FSunny.6 mph74%30.12 "Hg10 mi
Weather by CustomWeather, © 2015

See weather overviewHow to use our weather pages